Location: ?????????
(41.2393°N, 22.9479°E)
Time: 21:47:39
(UTC+00:00)

Cosmos 676 Rocket - Pass Details

Date: 17 November 2025
Orbit: 750 x 779 km, 74.0° (Epoch: 11 December)

Event Time Altitude Azimuth Distance (km) Brightness Sun altitude
Rises 16:52:26 0° 194° (SSW) 3,246 7.5 -19.7°
Reaches altitude 10° 16:54:49 10° 193° (SSW) 2,322 6.7 -20.1°
Maximum altitude 17:00:05 78° 107° (ESE) 799 3.9 -21.1°
Enters shadow 17:02:59 28° 25° (NNE) 1,446 5.1 -21.7°
